{"data":{"norad_id":62670,"epoch":"2026-05-25T04:42:10.609632Z","epoch_age_seconds":48280,"freshness":"FRESH","line1":"1 62670U 25009BP  26145.19595613  .00010749  00000+0  38701-3 0  9996","line2":"2 62670  97.3924 226.4878 0005678  69.5620 290.6229 15.28746814133023","mean_motion":15.28746814,"eccentricity":0.0005678,"inclination_deg":97.3924,"raan_deg":226.4878,"arg_perigee_deg":69.562,"mean_anomaly_deg":290.6229,"bstar":0.00038701,"rev_number":13302,"period_min":94.194799741378,"perigee_km":475.66365867727,"apogee_km":483.45125650331,"semimajor_km":6857.6944575903,"source":"CELESTRAK","updated_at":"2026-05-25T13:38:13.342326Z"}}